Location: Bacharowice
(49.9333°N, 19.5833°E)
Time: 09:10:41
(UTC+00:00)

Helios 1B rocket - Pass Details

Date: 11 May 2021
Orbit: 573 x 583 km, 98.2° (Epoch: 21 June)

Event Time Altitude Azimuth Distance (km) Brightness Sun altitude
Rises 23:30:41 0° 26° (NNE) 2,819 7.4 -20.9°
Reaches altitude 10° 23:33:15 10° 41° (NE) 1,913 6.0 -20.8°
Maximum altitude 23:36:30 22° 93° (E) 1,299 4.3 -20.7°
Enters shadow 23:37:54 19° 121° (ESE) 1,429 4.2 -20.7°
